Regional Weather Roundup
Issued by NWS

Home | Current Version | Previous Version | Text Only | Print | Product List | Glossary Off
Versions: 1 2 3 4 5 6 7 8 9 10 11 12 13 14 15 16 17 18 19 20 21 22 23 24 25 26 27 28 29 30 31 32 33 34 35 36 37 38 39 40 41 42 43 44 45 46 47 48 49 50

504
ASUS43 KDMX 251508
RWRIA

WEATHER ROUNDUP FOR IOWA
NATIONAL WEATHER SERVICE DES MOINES IA
1000 AM CDT THU AUG 25 2016

NOTE: "FAIR" INDICATES FEW OR NO CLOUDS BELOW 12,000 FEET WITH NO
SIGNIFICANT WEATHER AND/OR OBSTRUCTIONS TO VISIBILITY.

* - THESE STATIONS ARE NOT NWS STATIONS...THUS NOT UNDER NWS
QUALITY CONTROL.  THEY ALSO DO NOT REPORT WEATHER SUCH
AS PRECIPITATION OR FOG.

IAZ001>003-012>014-020>022-031>034-043>046-251600-
   NORTHWEST IOWA

CITY           SKY/WX    TMP DP  RH WIND       PRES   REMARKS
CARROLL *      CLOUDY    64  63  94 CALM      30.13R
CHEROKEE *     CLOUDY    64  59  83 N5        30.13R
DENISON *      CLOUDY    63  61  94 CALM      30.12R
LE MARS *      CLOUDY    64  57  77 N5        30.15R
ORANGE CITY *  CLOUDY    63  57  82 N6        30.15R
SHELDON *      PTSUNNY   63  57  82 N9        30.12R
SIOUX CITY     CLOUDY    63  58  83 NW7       30.14R
SPENCER        CLOUDY    65  57  75 N6        30.12R
STORM LAKE *   CLOUDY    66  63  88 VRB3      30.13R
$$

IAZ055>058-069>071-079>083-090>094-251600-
   SOUTHWEST IOWA

CITY           SKY/WX    TMP DP  RH WIND       PRES   REMARKS
ATLANTIC *     CLOUDY    63  61  94 CALM      30.14R
AUDUBON *      CLOUDY    64  61  88 CALM      30.15R
CLARINDA *       N/A     64  64 100 MISG      30.16R
COUNCIL BLFS * CLOUDY    61  61 100 CALM      30.14S
CRESTON *      CLOUDY    66  63  88 N5        30.15R
HARLAN  *      CLOUDY    61  61 100 CALM      30.17R
LAMONI         LGT RAIN  66  65  96 CALM      30.13R FOG
RED OAK *      CLOUDY    63  63 100 CALM      30.14S
SHENANDOAH *   LGT RAIN  63 N/A N/A CALM      30.15R
$$

IAZ047>049-059>061-072>074-084-251600-
   CENTRAL IOWA

CITY           SKY/WX    TMP DP  RH WIND       PRES   REMARKS
AMES           CLOUDY    69  62  78 N8        30.11R
ANKENY *         N/A    N/A N/A N/A MISG        N/A
BOONE *        CLOUDY    68  61  77 CALM      30.11R
CHARITON *       N/A     68  64  88 MISG      30.10R
DES MOINES     CLOUDY    71  62  73 N6        30.10R
GRINNELL*      CLOUDY    71  61  71 N3        30.10R
KNOXVILLE *    CLOUDY    70  61  73 N5        30.08R
MARSHALLTOWN   PTSUNNY   72  64  76 N6        30.09R
NEWTON *       MOSUNNY   70  64  83 N6        30.09R
PERRY *          N/A     65  63  91 CALM      30.13R
$$

IAZ004>006-015-016-023>025-035-036-251600-
   NORTH CENTRAL IOWA

CITY           SKY/WX    TMP DP  RH WIND       PRES   REMARKS
ALGONA *       CLOUDY    72  59  64 W6        30.11R
ESTHERVILLE    PTSUNNY   64  58  80 N6        30.11R
FORT DODGE *   CLOUDY    68  59  73 CALM      30.12R
MASON CITY     SUNNY     71  59  65 W5        30.11R
FOREST CITY *    N/A    N/A N/A N/A MISG        N/A
WEBSTER CITY * CLOUDY    68  63  83 CALM      30.10R
IOWA FALLS *     N/A     72  60  66 CALM      30.12R
$$

IAZ007>011-017>019-026>030-037>042-050>054-066-251600-
   NORTHEAST IOWA

CITY           SKY/WX    TMP DP  RH WIND       PRES   REMARKS
CEDAR RAPIDS   PTSUNNY   75  64  68 N6        30.06R
CHARLES CITY * SUNNY     72  63  73 VRB6      30.10R
CLINTON *      PTSUNNY   74  64  71 NE7       30.06R
DECORAH *      SUNNY     70  61  73 CALM      30.07R
DUBUQUE        SUNNY     72  62  71 N5        30.07R
MONTICELLO *   SUNNY     73  61  64 NE8       30.06R
OELWEIN *      MOSUNNY   72  63  73 VRB5      30.09R
WATERLOO       CLOUDY    70  62  76 SW3       30.08R
$$

IAZ064-065-067-068-078-251600-
   EAST CENTRAL IOWA

CITY           SKY/WX    TMP DP  RH WIND       PRES   REMARKS
DAVENPORT      CLOUDY    73  63  70 NE8       30.06R
IOWA CITY      CLOUDY    72  61  68 N8        30.08R
MT. PLEASANT * MOSUNNY   75  67  77 NE5       30.09R
MUSCATINE *    CLOUDY    73  64  73 N9        30.06R
QUAD CITIES    MOSUNNY   75  64  68 NE3       30.04R
$$

IAZ062-063-075>077-085>089-095>099-251600-
   SOUTHEAST IOWA

CITY           SKY/WX    TMP DP  RH WIND       PRES   REMARKS
BURLINGTON     CLOUDY    74  70  87 N3        30.07R
FAIRFIELD *    MOSUNNY   72  64  78 NE3       30.08R
FORT MADISON * CLOUDY    75  70  83 CALM      30.08R
KEOKUK *       CLOUDY    73  70  88 CALM      30.07R
OSKALOOSA *      N/A     70  64  81 NE7       30.09R
OTTUMWA        PTSUNNY   70  63  78 N7        30.08R
WASHINGTON *   CLOUDY    72  64  78 NE6       30.08R
$$

ABBREVIATIONS USED IN REMARKS
   TC - TEMPERATURES IN CELSIUS
  WCI - WIND CHILL INDEX
   HX - HEAT INDEX
  VSB - VISIBILITY
$$





USA.gov is the U.S. government's official web portal to all federal, state and local government web resources and services.